Meath Environmental Platform

Observations for Trim Market St

Time AQI Temp °C Hum % Pres Pa CO μg/m³ H₂S μg/m³ NO μg/m³ NO₂ μg/m³ O₃ μg/m³ SO₂ μg/m³ PM1 μg/m³ PM2.5 μg/m³ PM10 μg/m³
Friday 10 July 2026
08:09 1 25.9 57 57,717 0 0 0 0 2.74 0 1.43 3.68 4.71
08:08 1 25.8 57 57,712 0 0 0 0 0 0 1.43 4.17 5.42
08:06 1 25.5 58 57,692 0 0 0.76 0 0 0 2.14 4.14 5.43
08:04 1 25.2 58 57,674 0.01 0 3.72 6.7 0 0 2.14 4.13 6.13
08:00 1 24.9 58 57,678 0 0 0 0 0 0 2.14 4.14 5.43
07:59 1 24.9 58 57,690 0 0 0 0 0 0 2.14 5.14 6.83
07:53 1 25.1 58 57,666 0.11 0 0.71 0 0 0 1.43 3.11 5.44
07:52 1 25.1 58 57,651 0.15 0 0 0 0 0 2.14 4.1 5.44
07:46 1 25 60 57,500 0.28 0 0.14 0 0 0 2.14 4.01 6.84
07:45 1 24.9 61 57,460 0.25 0 0 0 0 0 2.14 3.99 5.48
07:44 1 24.8 61 57,414 0.24 0 0 0 0 0 1.43 4.47 6.85
07:43 1 24.6 61 57,366 0.2 0 0 0 0 0 3.56 5.45 8.21
07:42 1 24.5 62 57,319 0.19 0 0 0 0 0 2.14 4.44 6.85
07:41 1 24.4 62 57,261 0.27 0 0 0 0 0 3.56 5.4 7.53
07:40 1 24.2 63 57,181 0.26 0 0 0 0 0 2.85 4.39 6.19
07:39 1 24.1 63 57,120 0.23 0 0 0 0 0 2.85 4.87 6.86
07:38 1 24 63 57,047 0.24 0 0 0.48 0 0 0.71 3.86 6.2
07:37 1 23.8 64 56,983 0.25 0 0.32 0 0 0 2.85 4.84 7.53
07:36 1 23.7 64 56,896 0.24 0 0 0 0 0 3.56 4.82 6.87
07:35 1 23.6 64 56,802 0.24 0 0 0 0 0 2.85 5.79 8.85